Detroit Metro Wayne County, MI

2:36 PM EDT on August 31, 2015 (GMT -0400)
Near I-94/275 | | Change Station
CLOSE
Current Station
Personal Weather Station
Location: Romulus, MI
Elevation: 679 ft
Nearby Weather Stations

Elev 679 ft 42.22 °N, 83.40 °W | Updated 20 seconds ago

Scattered Clouds
Scattered Clouds
82.8 °F
Feels Like 87 °F
N
0.3
Wind Variable Wind from West
Gusts 2.3 mph

Today
High -- | Low -- °F
--% Chance of Precip.
Yesterday
High -- | Low -- °F
Precip. -- in
6:57 AM 8:09 PM
Waning Gibbous, 94% visible
Pressure 30.07 in
Visibility 8.0 miles
Clouds Scattered Clouds 3000 ft
Heat Index 87 °F
Dew Point 70 °F
Humidity 66%
Rainfall 0.00 in
Snow Depth Not available.
UV 7 out of 12
Pollen 7.60 out of 12
Air Quality Not available.
Flu Activity Not available.
METAR KDTW 311753Z 25011KT 8SM SCT030 29/19 A3008 RMK AO2 SLP182 T02890194 10289 20200 58008
Pressure 30.07 in
Visibility 8.0 miles
Clouds Scattered Clouds 3000 ft
Heat Index 87 °F
Dew Point 70 °F
Humidity 66%
Rainfall 0.00 in
Snow Depth Not available.
UV 7 out of 12
Pollen 7.60 out of 12
Air Quality Not available.
Flu Activity Not available.
METAR KDTW 311753Z 25011KT 8SM SCT030 29/19 A3008 RMK AO2 SLP182 T02890194 10289 20200 58008

10-Day Weather Forecast

×

Almanac

Astronomy

Aug. 31, 2015 Rise Set
Actual Time
Civil Twilight
Nautical Twilight
Astronomical Twilight
Moon
Length of Visible Light
Length of Day
Tomorrow will be .
, % of the Moon is Illuminated

Today's Extremes

State Highs State Lows

Community

WunderPhotos

Upload Photos

1,851,334 photos uploaded!

WunderBlogs® & News

Nearby

Air Quality

  Air Quality AQ Index Pollutant
Not available.

Snow Depth

Station Depth Elevation

Earthquake Activity

City Distance Mag. Time & Date
Minimum magnitude displayed is 2.5.

Coastal Water Temperatures

Place Temperature

Stations

Nearby Weather Stations

Station Location Temp. Windchill Dew Point Humidity Wind Precip. Elev Updated Type